www.pogodaiklimat.ru

Погода и климат >> Архив погоды >> Индонезия >> Гесер


ПОГОДА в Гесере

  • Прогноз погоды в Гесере
  • Монитор погоды в Гесере

АРХИВ ПОГОДЫ в Гесере

Время (UTC), дата Ветер
(напр.,м/с)
 
Видим.   Явления Облачность Т
(С)
Тd
(С)
f
(%)
Тe
(С)
Тes
(С)
Комфортность P
(гПа)
Po
(гПа)
Тmin
(С)
Tmax
(С)
R
(мм)
R24
(мм)
S
(см)
03 18.06 ЮВ 4 7000 м мгла 8/3 450 м
[Cu med, cong Ac trans Ci sp]
+27.8 +23.1 76 +37 +43 очень
душно
1011.3 1011.1
06 18.06 Ю 3 7000 м мгла 9/4 420 м
[Cb calv Ac As Ci sp]
+27.6 +23.2 77 +37 +40 очень
душно
1010.2 1010.0
09 18.06 ЮВ 3 7000 м мгла 9/4 420 м
[Cb calv Ac As Ci sp]
+26.8 +23.2 81 +36 +36 очень
душно
1010.9 1010.7
12 18.06 ЮВ 2 7000 м мгла 6/4 420 м
[Cb calv Ac trans Ci fib]
+26.4 +23.4 84 +36 +36 очень
душно
1012.1 1011.9 +28.9
15 18.06 Ю 4 7000 м мгла 6/3 450 м
[Cu med, cong Ac trans Ci fib]
+26.0 +23.0 84 +35 +35 очень
душно
1011.5 1011.3
18 18.06 Ю 4 7000 м мгла 9/4 420 м
[Cb cap Ac trans Ci sp]
+26.2 +22.9 82 +35 +35 очень
душно
1010.8 1010.6
00 19.06 ЮВ 3 7000 м мгла 8/3 450 м
[Cu med, cong Ac trans Ci sp]
+27.6 +23.8 80 +38 +41 очень
душно
1012.0 1011.8 +26.2
03 19.06 Ю 5 7000 м мгла 8/3 450 м
[Cu med, cong Ac trans Ci sp]
+28.0 +23.9 78 +39 +43 очень
душно
1011.1 1010.9
06 19.06 штиль 0 50 км ?/? +27.9 +23.6 77 +38 +38 очень
душно
1009.5 1009.3
09 19.06 Ю 2 7000 м мгла 8/3 450 м
[Cu med, cong Ac trans Ci fib]
+26.8 +23.5 82 +36 +36 очень
душно
1009.7 1009.5
12 19.06 Ю 3 7000 м мгла 9/4 420 м
[Cb cap Ac trans Ci sp]
+26.4 +23.7 85 +36 +36 очень
душно
1011.1 1010.9 +29.2
15 19.06 Ю 5 7000 м мгла 9/4 420 м
[Cb cap Ac trans Ci sp]
+26.2 +23.8 87 +36 +36 очень
душно
1011.2 1011.0
18 19.06 Ю 4 7000 м мгла 8/3 450 м
[Cu med, cong Ac trans Ci sp]
+26.2 +23.5 85 +36 +36 очень
душно
1010.1 1009.9
00 20.06 ЮВ 4 5000 м осадки на расстоянии 9/4 420 м
[Cb cap As op Ci fib]
+26.8 +24.3 86 +37 +39 очень
душно
1011.9 1011.7 +26.2
03 20.06 Ю 5 7000 м мгла 6/3 450 м
[Cu med, cong Ac trans Ci fib]
+27.3 +24.2 83 +38 +44 очень
душно
1011.4 1011.2
06 20.06 Ю 5 7000 м мгла 8/4 420 м
[Cb cap Ac trans Ci sp]
+27.6 +23.5 78 +37 +39 очень
душно
1009.9 1009.7
09 20.06 Ю 4 7000 м мгла 4/3 480 м
[Cu med, cong Ac trans Ci sp]
+26.8 +23.5 82 +36 +36 очень
душно
1010.4 1010.2
12 20.06 Ю 4 7000 м мгла 6/3 450 м
[Cu med, cong Ac trans Ci sp]
+26.4 +23.6 85 +36 +36 очень
душно
1012.3 1012.1 +28.8
15 20.06 Ю 4 6000 м мгла 6/4 420 м
[Cb cap Ac trans Ci sp]
+26.2 +24.6 91 +37 +37 очень
душно
1012.1 1011.9
18 20.06 ЮВ 3 5000 м осадки на расстоянии 8/4 420 м
[Cb calv Ac trans Ci fib]
+25.3 +23.6 90 +34 +34 очень
душно
1010.9 1010.7
00 21.06 ЮВ 3 6000 м мгла 9/4 420 м
[Cb cap Ac trans Ci sp]
+27.6 +23.2 77 +37 +39 очень
душно
1011.7 1011.5 +25.0 3
03 21.06 ЮВ 3 7000 м мгла 9/4 420 м
[Cb cap Ac trans Ci sp]
+28.8 +23.8 74 +39 +45 очень
душно
1010.3 1010.1
06 21.06 Ю 4 7000 м мгла 8/4 420 м
[Cb cap Ac trans Ci sp]
+27.6 +23.5 78 +37 +40 очень
душно
1008.6 1008.4
09 21.06 Ю 1 7000 м мгла 6/3 450 м
[Cu med, cong Ac trans Ci sp]
+26.8 +23.2 81 +36 +36 очень
душно
1009.8 1009.6
12 21.06 ЮВ 2 6000 м осадки на расстоянии 8/5 420 м
[Cb cap Ac trans Ci sp]
+26.0 +23.9 88 +36 +36 очень
душно
1011.8 1011.6 +29.8
15 21.06 ЮВ 3 6000 м мгла 8/4 420 м
[Cb calv As trans Ci fib]
+26.0 +23.6 87 +35 +35 очень
душно
1011.6 1011.4
18 21.06 Ю 5 7000 м мгла 8/4 420 м
[Cb cap Ac trans Ci sp]
+26.0 +23.3 85 +35 +35 очень
душно
1010.5 1010.3
00 22.06 ЮВ 3 7000 м мгла 5/3 450 м
[Cu med, cong Ac trans Ci sp]
+27.4 +24.1 82 +38 +42 очень
душно
1011.5 1011.3 +25.0
03 22.06 Ю 5 6000 м мгла 9/4 420 м
[Cb cap Ac trans Ci sp]
+27.8 +24.5 82 +39 +42 очень
душно
1010.2 1010.0
06 22.06 Ю 5 6000 м осадки на расстоянии 9/5 420 м
[Cb cap Ac As Ci sp]
+27.2 +24.2 84 +38 +40 очень
душно
1008.5 1008.3
09 22.06 ЮВ 3 6000 м осадки на расстоянии 9/5 420 м
[Cb cap Ac As Cs]
+26.6 +24.5 88 +37 +37 очень
душно
1009.1 1008.9 2
12 22.06 ЮВ 3 5000 м осадки на расстоянии 10/5 420 м
[Cb cap Ac As Cs]
+26.2 +24.7 91 +28.4 1
15 22.06 штиль 0 6000 м мгла 8/4 420 м
[Cb calv Ac trans Ci sp]
+26.0 +24.8 93 +37 +37 очень
душно
1011.1 1010.9
18 22.06 ЮВ 1 6000 м мгла 9/3 450 м
[Cu med, cong Ac trans Ci sp]
+25.8 +24.4 92 +36 +36 очень
душно
1010.1 1009.9
00 23.06 ЮВ 3 6000 м мгла 9/5 420 м
[Cb cap Ac As Ci sp]
+26.8 +25.0 90 +39 +40 очень
душно
1011.4 1011.2 +25.2 3
03 23.06 Ю 3 6000 м мгла 9/5 420 м
[Cb cap Ac trans Ci sp]
+29.6 +25.9 81 +44 +49 опасность
перегрева
1010.8 1010.6
06 23.06 ЮВ 3 5000 м осадки на расстоянии 10/6 420 м
[Cb cap Ac As Cs]
+27.2 +24.8 87 +39 +41 очень
душно
1009.5 1009.3
09 23.06 ЮВ 2 6000 м мгла 9/5 420 м
[Cb cap Ac As Cs]
+26.0 +24.5 91 +36 +36 очень
душно
1010.0 1009.8
12 23.06 Ю 4 5000 м осадки на расстоянии 9/5 420 м
[Cb cap As op Ci fib]
+25.6 +23.3 87 +34 +34 очень
душно
1011.9 1011.7 +31.2 0.1
15 23.06 ЮВ 2 5000 м мгла 9/5 420 м
[Cb cap As op Ci fib]
+26.2 +24.4 90 +37 +37 очень
душно
1011.9 1011.7
18 23.06 В 3 5000 м осадки на расстоянии 9/6 400 м
[Cb cap Ac As Cs]
+25.8 +24.0 90 +36 +36 очень
душно
1011.1 1010.9
00 24.06 ЮВ 2 6000 м мгла 9/4 420 м
[Cb calv Ac trans Ci sp]
+27.2 +24.5 85 +38 +41 очень
душно
1013.3 1013.1 +25.2 1
03 24.06 ЮВ 2 6000 м осадки на расстоянии 9/5 420 м
[Cb cap Ac As Ci sp]
+28.2 +25.9 87 +42 +47 опасность
перегрева
1012.8 1012.6
06 24.06 Ю 5 6000 м осадки на расстоянии 8/4 420 м
[Cb cap As op Ci fib]
+27.3 +24.9 87 +39 +41 очень
душно
1010.9 1010.7
09 24.06 Ю 5 4000 м осадки на расстоянии 10/5 420 м
[Cb cap As op]
+25.3 +24.5 95 +35 +35 очень
душно
1011.8 1011.6 5
12 24.06 ЮВ 3 6000 м мгла {дождь} 9/4 420 м
[Cb cap Ac trans Ci sp]
+25.6 +24.4 93 +36 +36 очень
душно
1013.3 1013.1 +29.8 5
15 24.06 ЮВ 3 6000 м мгла 9/4 420 м
[Cb cap Ac As Ci sp]
+26.0 +24.2 90 +36 +36 очень
душно
1013.5 1013.3
18 24.06 ЮВ 2 6000 м мгла 10/4 420 м
[Cb calv Ac As Cs]
+25.8 +24.3 91 +36 +36 очень
душно
1012.0 1011.8
00 25.06 ЮВ 2 5000 м осадки на расстоянии 10/5 420 м
[Cb cap As op]
+26.8 +24.7 88 +38 +39 очень
душно
1014.2 1014.0 +25.0 5

 

Местоположение метеостанции Гесер (Индонезия): широта -3.80 долгота 130.83 высота над уровнем моря 3 м.

В архиве по умолчанию представлена погода в Гесере за последнюю неделю. Архивные данные за месяц целиком и за предыдущие месяцы, начиная с января 2011 года, Вы можете получить, выбрав интересующий диапазон дат из раскрывающегося списка и нажав кнопку "Ввод!".


*Определитесь, кто Вы:
робот инопланетянин человек

Внимание! Время в таблицах - всемирное. Для получения местного времени необходимо прибавить поправку, которая равна 9 ч.

Смотрите также архив погоды в соседних городах и на ближайших метеорологических станциях:

Погода в Неира (Индонезия) (131 км)
Погода в Факфаке (Индонезия) (187 км)
Погода в Амахаи (Индонезия) (222 км)
Погода в Туале (Индонезия) (298 км)
Погода в Амбоне (Индонезия) (305 км)
Погода в Аэропорту Соронг-Джефман (Индонезия) (321 км)
Погода в Каимана (Индонезия) (324 км)
Погода в Намлеа (Индонезия) (421 км)
Погода в Саумлаки (Индонезия) (468 км)
Погода в Маноквари (Индонезия) (483 км)

Пояснения к столбцам:

Ветер - указаны скорость ветра в м/с - средняя за 10 мин, порывы в срок и между сроками (в фигурных скобках) и направление, откуда дует ветер: С - северный, СВ - северо-восточный, В - восточный, ЮВ - юго-восточный, Ю - южный, ЮЗ - юго-западный, З - западный, СЗ - северо-западный.
Видимость - горизонтальная дальность видимости в метрах или километрах. При видимости от 1 до 10 км при отсутствии осадков обычно наблюдается дымка, при ухудшении видимости до 1 км и менее - туман. В сухую погоду видимость может ухудшаться дымом, пылью или мглою.
Явления - указаны атмосферные явления, наблюдавшиеся в срок или в последний час перед сроком; фигурными скобками обозначены явления, наблюдавшиеся между сроками (за 1-3 часа до срока); квадратными скобками обозначены град или гололедные отложения с указанием их диаметра в мм.
Облачность - указаны через наклонную черту общая и нижняя облачность в баллах и высота нижней границы облаков в метрах; квадратными скобками обозначены формы облаков: Ci - перистые, Cs - перисто-слоистые, Cc - перисто-кучевые, Ac - высококучевые, As - высокослоистые, Sc - слоисто-кучевые, Ns - слоисто-дождевые, Cu - кучевые, Cb - кучево-дождевые. Подробнее классификацию облаков см. в Атласе облаков (PDF).
T - Температура воздуха - температура, измеренная на высоте 2 м над землей.
Td - Температура точки росы - температура, при понижении до которой содержащийся в воздухе водяной пар достигнет насыщения.
f - Относительная влажность воздуха - влажноcть воздуха, измеренная на высоте 2 м над землей.
Te - Эффективная температура - температура, которую ощущает одетый по сезону человек в тени. Характеристика душности погоды. При расчете учитывается влияние влажности воздуха и скорости ветра на теплоощущения человека.
Tes - Эффективная температура на солнце - температура, которую ощущает человек, с поправкой на солнечный нагрев. Характеристика знойности погоды. Зависит от высоты солнца над горизонтом, облачности и скорости ветра. Ночью, в пасмурную погоду, а также при ветре 12 м/с и более поправка равна нулю.
P - Атмосферное давление - приведенное к уровню моря атмосферное давление.
Po - Атмосферное давление - измеренное на уровне метеостанции атмосферное давление.
Tmin - Минимальная температура - минимум температуры воздуха на высоте 2 м над землей.
Tmax - Максимальная температура - максимум температуры воздуха на высоте 2 м над землей.
R - Количество осадков - Количество выпавших осадков за период времени, мм. При наведении курсора мыши на число - период времени, за который выпало указанное количество осадков.
R24 - Количество осадков - Количество выпавших осадков за 24 часа, мм.
S - Снежный покров - Высота снежного покрова, см. При наведении курсора мыши на число - состояние снежного покрова и степень покрытия местности в баллах.